KN4CGX15 Weather Reports


Display with metric or nautical units.
time (UTC)temp
F
wind
direction
speed
MPH
gust
MPH
rain 1hr
in
rain 24hr
in
rain mn
in
humidity
%
barometer
mb
20260504081541 52 0 0.0 0.0 0.00 0.00 0.00 83 1018.0
20260504044542 55 0 0.0 0.0 0.00 0.00 0.00 77 1018.9
20260504043046 55 0 0.0 0.0 0.00 0.00 0.00 76 1019.0
20260504041540 55 0 0.0 0.0 0.00 0.00 0.00 74 1018.9
20260504040041 56 0 0.0 0.0 0.00 0.00 0.00 75 1018.8
20260504034538 56 0 0.0 0.0 0.00 0.00 0.00 78 1018.8
20260504033044 56 0 0.0 0.0 0.00 0.00 0.00 75 1018.7
20260504031545 57 0 0.0 0.0 0.00 0.00 0.00 70 1018.7
20260504030041 57 0 0.0 0.0 0.00 0.00 0.00 69 1018.7
20260504024539 58 0 0.0 0.0 0.00 0.00 0.00 73 1018.7
20260504023045 59 0 0.0 0.0 0.00 0.00 0.00 70 1018.7
20260504021547 60 0 0.0 0.0 0.00 0.00 0.00 67 1018.7
20260504020041 60 0 0.0 0.0 0.00 0.00 0.00 64 1018.6
20260504014542 61 0 0.0 0.0 0.00 0.00 0.00 61 1018.4
20260504013051 62 0 0.0 0.0 0.00 0.00 0.00 62 1018.1
20260504011538 63 0 0.0 0.0 0.00 0.00 0.00 59 1017.9
20260504010053 64 0 0.0 0.0 0.00 0.00 0.00 56 1017.9
20260504004547 65 0 0.0 0.0 0.00 0.00 0.00 55 1017.8
20260504003044 67 0 0.0 0.0 0.00 0.00 0.00 50 1017.7
20260504001543 69 0 0.0 0.0 0.00 0.00 0.00 47 1017.6
20260504000044 71 0 0.0 0.0 0.00 0.00 0.00 45 1017.6
20260503234540 72 0 0.0 0.0 0.00 0.00 0.00 36 1017.5
20260503233047 73 0 0.0 1.0 0.00 0.00 0.00 36 1017.6
20260503231545 73 0 0.0 0.0 0.00 0.00 0.00 34 1017.5
20260503230050 73 0 0.0 2.0 0.00 0.00 0.00 34 1017.4
20260503224544 74 0 0.0 1.0 0.00 0.00 0.00 33 1017.4
20260503223041 74 0 0.0 0.0 0.00 0.00 0.00 32 1017.5
20260503221539 75 0 0.0 0.0 0.00 0.00 0.00 33 1017.6
20260503220038 75 0 0.0 4.0 0.00 0.00 0.00 32 1017.7
20260503214547 77 0 0.0 10.0 0.00 0.00 0.00 29 1017.7
20260503213044 77 0 0.0 2.0 0.00 0.00 0.00 32 1017.6
20260503211544 76 0 0.0 9.0 0.00 0.00 0.00 29 1017.8
20260503210040 78 0 0.0 3.0 0.00 0.00 0.00 28 1017.8
20260503204539 77 0 0.0 0.0 0.00 0.00 0.00 31 1017.9
20260503203044 77 0 0.0 1.0 0.00 0.00 0.00 28 1018.2
20260503201543 78 0 0.0 4.0 0.00 0.00 0.00 28 1018.4
20260503200044 77 0 0.0 0.0 0.00 0.00 0.00 32 1018.4
20260503194543 77 0 0.0 9.0 0.00 0.00 0.00 29 1018.6
20260503193045 76 0 0.0 1.0 0.00 0.00 0.00 34 1019.1
20260503191540 75 0 0.0 4.0 0.00 0.00 0.00 30 1019.4
20260503190038 75 0 0.0 5.0 0.00 0.00 0.00 29 1019.7
20260503184553 76 0 0.0 3.0 0.00 0.00 0.00 31 1019.9
20260503183045 76 0 0.0 0.0 0.00 0.00 0.00 32 1019.9
20260503181537 75 0 0.0 0.0 0.00 0.00 0.00 33 1019.9
20260503180052 73 0 0.0 1.0 0.00 0.00 0.00 34 1020.0
20260503174544 73 26 0.0 8.0 0.00 0.00 0.00 34 1020.1
20260503173047 72 0 0.0 6.0 0.00 0.00 0.00 33 1020.1
20260503171547 72 0 0.0 11.0 0.00 0.00 0.00 33 1020.6